Time,TemperatureF,DewpointF,PressureIn,WindDirection,WindDirectionDegrees,WindSpeedMPH,WindSpeedGustMPH,Humidity,HourlyPrecipIn,Conditions,Clouds,dailyrainin,SoftwareType,DateUTC
2017-09-21 00:07:00,61.2,60.0,30.12,WSW,248,0.0,0.0,97,0.00,,,0.00,weatherlink.com 1.10,2017-09-21 04:07:00,
2017-09-21 00:22:00,60.8,60.0,30.12,WSW,248,0.0,0.0,97,0.00,,,0.00,weatherlink.com 1.10,2017-09-21 04:22:00,
2017-09-21 00:37:00,61.0,61.0,30.12,WSW,248,0.0,0.0,98,0.00,,,0.00,weatherlink.com 1.10,2017-09-21 04:37:00,
2017-09-21 00:53:00,60.5,60.0,30.12,WSW,249,0.0,1.0,97,0.00,,,0.00,weatherlink.com 1.10,2017-09-21 04:53:00,
2017-09-21 01:07:00,60.5,60.0,30.13,WSW,248,0.0,0.0,98,0.00,,,0.00,weatherlink.com 1.10,2017-09-21 05:07:00,
2017-09-21 01:22:00,60.0,59.0,30.13,WSW,248,0.0,0.0,97,0.00,,,0.00,weatherlink.com 1.10,2017-09-21 05:22:00,
2017-09-21 01:37:00,60.2,60.0,30.13,WSW,248,0.0,0.0,98,0.00,,,0.00,weatherlink.com 1.10,2017-09-21 05:37:00,
2017-09-21 01:52:00,59.8,59.0,30.13,WSW,248,0.0,1.0,98,0.00,,,0.00,weatherlink.com 1.10,2017-09-21 05:52:00,
2017-09-21 02:07:00,59.8,59.0,30.13,WSW,248,0.0,0.0,98,0.00,,,0.00,weatherlink.com 1.10,2017-09-21 06:07:00,
2017-09-21 02:22:00,60.1,60.0,30.12,WSW,248,0.0,0.0,98,0.00,,,0.00,weatherlink.com 1.10,2017-09-21 06:22:00,
2017-09-21 02:37:00,59.7,59.0,30.12,WSW,248,0.0,0.0,98,0.00,,,0.00,weatherlink.com 1.10,2017-09-21 06:37:00,
2017-09-21 02:52:00,59.2,59.0,30.11,WSW,248,0.0,0.0,98,0.00,,,0.00,weatherlink.com 1.10,2017-09-21 06:52:00,
2017-09-21 03:07:00,58.9,58.0,30.12,WSW,248,0.0,0.0,98,0.00,,,0.00,weatherlink.com 1.10,2017-09-21 07:07:00,
2017-09-21 03:22:00,58.5,58.0,30.12,WSW,248,0.0,0.0,98,0.00,,,0.00,weatherlink.com 1.10,2017-09-21 07:22:00,
2017-09-21 03:37:00,58.5,58.0,30.12,WSW,248,0.0,0.0,98,0.00,,,0.00,weatherlink.com 1.10,2017-09-21 07:37:00,
2017-09-21 03:52:00,58.0,57.0,30.12,WSW,249,0.0,0.0,97,0.00,,,0.00,weatherlink.com 1.10,2017-09-21 07:52:00,
2017-09-21 04:07:00,58.0,58.0,30.12,WSW,249,0.0,0.0,98,0.00,,,0.00,weatherlink.com 1.10,2017-09-21 08:07:00,
2017-09-21 04:23:00,57.9,57.0,30.12,WSW,248,0.0,0.0,98,0.00,,,0.00,weatherlink.com 1.10,2017-09-21 08:23:00,
2017-09-21 04:37:00,57.8,57.0,30.12,WSW,248,0.0,0.0,98,0.00,,,0.00,weatherlink.com 1.10,2017-09-21 08:37:00,
2017-09-21 04:52:00,57.5,57.0,30.12,WSW,248,0.0,0.0,98,0.00,,,0.00,weatherlink.com 1.10,2017-09-21 08:52:00,
2017-09-21 05:07:00,57.5,57.0,30.13,WSW,249,0.0,0.0,98,0.00,,,0.00,weatherlink.com 1.10,2017-09-21 09:07:00,
2017-09-21 05:23:00,57.2,57.0,30.14,WSW,248,0.0,0.0,98,0.00,,,0.00,weatherlink.com 1.10,2017-09-21 09:23:00,
2017-09-21 05:38:00,56.9,56.0,30.14,WSW,248,0.0,0.0,98,0.00,,,0.00,weatherlink.com 1.10,2017-09-21 09:38:00,
2017-09-21 05:53:00,56.5,56.0,30.14,WSW,248,0.0,0.0,98,0.00,,,0.00,weatherlink.com 1.10,2017-09-21 09:53:00,
2017-09-21 06:08:00,56.4,56.0,30.14,WSW,249,0.0,1.0,98,0.00,,,0.00,weatherlink.com 1.10,2017-09-21 10:08:00,
2017-09-21 06:23:00,56.3,56.0,30.15,WSW,248,0.0,0.0,98,0.00,,,0.00,weatherlink.com 1.10,2017-09-21 10:23:00,
2017-09-21 06:38:00,55.9,55.0,30.15,WSW,249,0.0,0.0,98,0.00,,,0.00,weatherlink.com 1.10,2017-09-21 10:38:00,
2017-09-21 06:53:00,56.2,56.0,30.16,WSW,249,0.0,0.0,99,0.00,,,0.00,weatherlink.com 1.10,2017-09-21 10:53:00,
2017-09-21 07:08:00,55.9,55.0,30.16,WSW,249,0.0,0.0,98,0.00,,,0.00,weatherlink.com 1.10,2017-09-21 11:08:00,
2017-09-21 07:23:00,55.5,55.0,30.16,WSW,249,0.0,0.0,99,0.00,,,0.00,weatherlink.com 1.10,2017-09-21 11:23:00,
2017-09-21 07:38:00,55.6,55.0,30.16,WSW,249,0.0,0.0,99,0.01,,,0.01,weatherlink.com 1.10,2017-09-21 11:38:00,
2017-09-21 07:53:00,56.0,56.0,30.17,WSW,249,0.0,1.0,99,0.01,,,0.01,weatherlink.com 1.10,2017-09-21 11:53:00,
2017-09-21 08:08:00,56.9,57.0,30.17,WSW,249,0.0,0.0,99,0.01,,,0.01,weatherlink.com 1.10,2017-09-21 12:08:00,
2017-09-21 08:23:00,57.4,57.0,30.17,WSW,249,0.0,0.0,99,0.00,,,0.01,weatherlink.com 1.10,2017-09-21 12:23:00,
2017-09-21 08:38:00,58.5,58.0,30.17,WSW,249,0.0,0.0,99,0.00,,,0.01,weatherlink.com 1.10,2017-09-21 12:38:00,
2017-09-21 08:53:00,59.9,60.0,30.18,WSW,249,0.0,0.0,99,0.00,,,0.01,weatherlink.com 1.10,2017-09-21 12:53:00,
2017-09-21 09:08:00,61.6,61.0,30.17,South,181,0.0,0.0,99,0.00,,,0.01,weatherlink.com 1.10,2017-09-21 13:08:00,
2017-09-21 09:23:00,63.1,63.0,30.18,South,184,0.0,0.0,99,0.00,,,0.01,weatherlink.com 1.10,2017-09-21 13:23:00,
2017-09-21 09:38:00,65.0,64.0,30.17,South,184,0.0,0.0,95,0.00,,,0.01,weatherlink.com 1.10,2017-09-21 13:38:00,
2017-09-21 09:53:00,66.6,65.0,30.17,South,171,0.0,2.0,94,0.00,,,0.01,weatherlink.com 1.10,2017-09-21 13:53:00,
2017-09-21 10:08:00,68.4,66.0,30.17,SSE,156,2.0,2.0,92,0.00,,,0.01,weatherlink.com 1.10,2017-09-21 14:08:00,
2017-09-21 10:23:00,70.3,67.0,30.17,SSE,147,2.0,4.0,90,0.00,,,0.01,weatherlink.com 1.10,2017-09-21 14:23:00,
2017-09-21 10:38:00,72.1,67.0,30.17,West,268,1.0,4.0,84,0.00,,,0.01,weatherlink.com 1.10,2017-09-21 14:38:00,
2017-09-21 10:53:00,73.3,68.0,30.16,WSW,243,0.0,2.0,82,0.00,,,0.01,weatherlink.com 1.10,2017-09-21 14:53:00,
2017-09-21 11:08:00,74.6,67.0,30.16,WNW,292,0.0,6.0,78,0.00,,,0.01,weatherlink.com 1.10,2017-09-21 15:08:00,
2017-09-21 11:23:00,75.5,67.0,30.16,NW,326,1.0,6.0,74,0.00,,,0.01,weatherlink.com 1.10,2017-09-21 15:23:00,
2017-09-21 11:38:00,76.4,66.0,30.16,WNW,289,2.0,6.0,71,0.00,,,0.01,weatherlink.com 1.10,2017-09-21 15:38:00,
2017-09-21 11:53:00,77.5,67.0,30.15,WNW,301,1.0,5.0,70,0.00,,,0.01,weatherlink.com 1.10,2017-09-21 15:53:00,
2017-09-21 12:09:00,77.7,67.0,30.15,WNW,300,2.0,5.0,69,0.00,,,0.01,weatherlink.com 1.10,2017-09-21 16:09:00,
2017-09-21 12:24:00,78.5,67.0,30.15,West,268,2.0,7.0,68,0.00,,,0.01,weatherlink.com 1.10,2017-09-21 16:24:00,
2017-09-21 12:39:00,77.8,66.0,30.14,NW,322,0.0,2.0,66,0.00,,,0.01,weatherlink.com 1.10,2017-09-21 16:39:00,
2017-09-21 12:54:00,79.6,67.0,30.14,SSE,148,1.0,5.0,66,0.00,,,0.01,weatherlink.com 1.10,2017-09-21 16:54:00,
2017-09-21 13:09:00,79.5,67.0,30.14,SW,233,0.0,2.0,65,0.00,,,0.01,weatherlink.com 1.10,2017-09-21 17:09:00,